Location: Proctor
(47.8934°N, 114.3048°W)
Time: 18:26:54
(UTC+00:00)

Transit 4A - Pass Details

Date: 13 May 2025
Orbit: 866 x 975 km, 66.8° (Epoch: 13 June)

Event Time Altitude Azimuth Distance (km) Brightness Sun altitude
Rises 05:12:13 0° 245° (WSW) 3,663 11.1 -16.5°
Reaches altitude 10° 05:15:02 10° 254° (WSW) 2,713 10.5 -16.8°
Maximum altitude 05:20:48 35° 319° (NW) 1,495 9.6 -17.3°
Drops below altitude 10° 05:26:31 10° 25° (NNE) 2,674 10.7 -17.8°
Sets 05:29:17 0° 34° (NE) 3,605 11.3 -18.1°
